SCP
0 0 0 0 0 0 0 0 0 0 0 0 0 0 0 0 0 0 0 0 0 0 0 0 0 0 0 0 0 0 0 0 0 0 0 0 0 0
0 0 0 0 0 0 0 0 0 0 0 0 0 0 0 0 0 0 0 0 0 0 0 0 0 0 0 0 0 0 0 0 0 0 0 0 0 0
1 1 1 0 0 0 0 0 0 0 0 0 0 0 0 0 0 0 0 0 0 0 0 0 0 0 0 0 0 0 0 0 0 0 0 0 0 0
1 1 1 1 0 0 0 0 0 0 0 0 0 0 0 0 0 0 0 0 0 0 0 0 0 0 0 0 0 0 0 0 0 0 0 0 0 0
1 1 1 1 1 1 0 0 0 0 0 0 0 0 0 0 0 0 0 0 0 0 0 0 0 0 0 0 0 0 0 0 0 0 0 0 0 0
1 1 1 1 1 0 0 0 0 0 0 0 0 0 0 0 0 0 0 0 0 0 0 0 0 0 0 0 0 0 0 0 0 0 0 0 0 0
1 1 1 0 0 0 0 0 0 1 1 0 0 0 0 0 0 0 0 0 0 0 0 0 0 0 0 0 0 0 0 0 0 0 0 0 0 0
1 1 0 0 0 0 0 0 0 0 0 0 0 0 0 0 0 0 0 0 0 0 0 0 0 0 0 0 0 0 0 0 0 0 0 0 0 0
0 1 0 0 0 0 0 0 0 0 0 0 0 0 0 1 1 1 0 0 0 0 0 0 0 0 0 0 0 0 0 0 0 0 0 0 0 0
0 0 0 0 0 0 0 0 0 0 0 0 0 0 0 0 1 1 0 0 0 0 0 0 0 0 0 0 0 0 0 0 0 0 0 0 0 0
0 0 0 0 0 0 0 0 0 0 0 0 0 0 0 0 0 0 0 0 0 0 0 0 0 0 0 0 0 0 0 0 0 0 0 0 0 0
0 0 0 0 0 0 0 0 0 0 0 0 0 0 0 0 0 0 0 0 0 0 0 0 0 0 0 0 0 0 0 0 0 0 0 0 0 0
0 0 0 0 0 0 0 0 0 0 0 0 0 0 0 0 0 0 0 0 0 0 0 0 0 0 0 0 0 0 0 0 0 0 0 0 0 0
0 0 0 0 0 0 0 0 0 0 0 0 0 0 0 0 0 0 0 0 0 0 0 0 0 0 0 0 0 0 0 0 0 0 0 0 0 0
0 0 0 0 0 0 0 0 0 0 0 0 0 0 0 0 0 0 1 1 0 0 0 0 0 0 0 0 0 0 0 0 0 0 0 0 0 0
0 0 0 0 0 0 0 0 0 0 0 0 0 0 0 0 0 1 1 1 0 0 0 0 0 0 0 0 0 0 0 0 0 0 0 0 0 0
0 0 0 0 0 0 0 0 0 0 0 0 0 0 0 0 0 1 1 1 0 0 0 0 0 0 0 0 0 0 0 0 0 0 0 0 0 0
0 0 0 0 0 0 0 0 0 0 0 0 0 0 0 0 0 0 0 0 0 0 0 0 0 0 0 0 0 0 0 0 0 0 0 0 0 0
0 0 0 0 0 0 0 0 0 0 0 0 0 0 0 0 0 0 0 0 0 0 0 0 0 0 0 0 0 0 0 0 0 0 0 0 0 0
0 0 0 0 0 0 0 0 0 0 0 0 0 0 0 0 0 0 0 0 0 0 0 0 0 0 0 0 0 0 0 0 0 0 0 0 0 0
0 0 0 0 0 0 0 0 0 0 0 0 0 0 0 0 0 0 0 0 0 0 0 0 0 0 0 0 0 0 0 0 0 0 0 0 0 0
0 0 0 0 0 0 0 0 0 0 0 0 0 0 0 0 0 0 0 0 0 0 0 0 0 0 0 0 0 0 0 0 0 0 0 0 0 0
0 0 0 0 0 0 0 0 0 0 0 0 0 0 0 0 0 0 0 0 0 0 0 0 0 0 0 0 0 0 0 0 0 0 0 0 0 0
Wind_Speed
2 2 1 1 1 1 1 1 1 1 1 1 1 2 2 3 6 5 5 8 9 9 8 7 6 5 5 4 4 4 4 4 4 4 4 4 4 5
2 2 1 1 2 1 1 1 1 1 1 1 1 1 1 2 5 4 4 8 9 10 9 9 8 7 6 5 5 5 5 5 5 5 5 5 5 5
2 2 2 2 1 2 1 1 1 1 2 1 1 1 1 1 1 2 4 4 5 9 10 10 9 8 7 6 6 6 5 6 6 6 6 6 6 6
2 2 2 2 2 2 2 2 2 2 2 2 1 1 2 1 2 3 3 4 3 8 10 10 9 9 8 7 6 6 6 6 6 6 7 7 7 7
2 2 2 2 2 2 2 2 2 2 1 2 2 1 1 2 2 3 3 2 3 5 8 9 9 9 9 9 8 7 7 7 7 7 7 7 7 7
1 2 2 2 2 2 2 2 2 2 2 2 2 2 2 2 1 2 2 2 2 3 4 5 7 9 9 9 9 8 8 7 7 7 7 7 7 7
2 2 2 1 1 2 2 1 2 2 2 2 2 2 1 1 1 2 2 2 2 2 2 3 4 4 5 7 8 9 9 9 8 8 8 8 7 7
2 2 2 2 3 3 3 2 2 3 3 2 2 2 2 1 1 2 1 1 2 1 1 3 3 4 4 4 8 11 11 10 10 9 9 8 8 8
2 2 3 2 2 2 3 4 3 4 4 3 3 3 3 2 2 2 2 2 2 2 1 3 3 3 3 4 9 12 12 12 11 10 10 9 9 8
3 3 3 2 3 2 2 2 3 3 4 4 4 4 3 2 2 3 3 3 3 3 2 3 3 3 2 2 7 10 12 11 11 11 10 10 9 9
4 3 3 3 3 3 3 3 3 3 4 3 3 3 3 3 2 2 3 2 3 3 2 2 2 2 2 3 4 9 11 11 11 11 11 10 10 9
2 2 4 4 3 4 4 3 4 4 3 3 3 4 5 5 5 4 3 3 3 3 2 2 2 2 2 2 2 3 5 8 10 11 11 10 9 5
3 2 1 3 4 5 5 4 5 4 4 4 4 4 4 4 4 4 4 4 4 3 2 1 1 1 2 2 2 2 3 3 4 5 8 10 9 7
3 2 1 1 3 4 4 4 5 4 4 4 4 4 3 3 4 4 5 5 4 4 3 2 2 2 2 3 2 2 2 3 3 3 4 6 8 10
3 2 2 3 3 4 6 6 5 4 3 4 4 4 3 3 3 3 3 4 4 5 4 4 3 3 3 3 3 2 2 2 2 3 3 3 4 4
3 3 4 5 5 5 4 4 4 4 3 4 3 3 3 2 3 3 3 3 3 3 4 4 4 4 4 4 3 3 2 2 2 2 2 3 3 3
2 3 3 3 3 3 3 3 4 4 4 4 3 3 3 2 2 2 3 3 4 4 3 3 3 3 4 3 3 3 3 3 2 2 2 2 3 4
3 3 4 4 4 3 3 4 4 4 4 3 3 3 3 3 3 2 2 3 3 3 3 3 2 1 2 3 4 4 3 3 2 2 2 3 3 2
3 4 4 4 4 4 3 3 3 3 3 4 4 4 3 3 3 3 3 3 3 3 3 2 2 2 3 4 3 3 3 3 2 2 2 2 3 2
4 4 4 3 3 2 2 2 2 2 2 3 3 3 3 3 3 3 3 3 3 3 3 2 3 3 4 4 3 2 4 3 2 2 2 2 1 2
3 3 3 3 2 2 2 2 2 2 2 2 2 3 2 3 3 3 3 3 3 3 3 3 3 4 2 1 2 2 1 2 2 2 2 2 2 2
3 4 3 2 2 2 2 2 2 2 2 2 2 2 2 2 3 4 3 3 2 2 2 2 2 2 2 2 3 3 2 1 0 0 1 2 2 3
3 3 2 2 2 2 2 3 3 2 2 2 2 2 2 2 2 2 2 2 1 1 1 2 1 1 2 3 3 2 2 2 1 0 1 3 4 5
Wind_Direction
225 225 241 264 267 254 229 191 186 224 234 217 179 175 169 147 162 181 183 192 197 202 205 208 212 215 217 217 217 221 216 208 208 203 197 206 212 218
231 224 226 248 268 279 262 232 194 202 233 227 204 146 145 167 173 184 187 187 200 203 203 203 205 209 211 213 217 220 221 217 215 212 210 214 218 222
240 228 225 235 263 283 287 275 246 217 225 245 235 150 159 145 168 205 194 186 197 203 204 202 204 205 205 208 212 217 223 225 224 222 223 222 222 218
232 233 243 245 243 268 279 274 264 235 208 233 236 208 211 181 195 233 215 205 195 199 201 201 202 204 204 206 209 215 221 224 224 225 225 227 223 218
227 227 242 248 247 247 265 271 268 268 227 223 237 219 210 201 203 241 238 224 219 197 191 198 201 204 208 209 211 216 222 224 224 225 226 225 221 219
236 233 241 243 242 251 253 262 264 280 265 252 239 220 221 205 197 228 243 237 240 225 194 196 200 206 211 212 215 217 221 224 225 225 225 224 221 217
243 241 237 219 218 245 260 278 270 263 264 260 252 245 237 214 231 239 234 235 250 227 192 206 201 206 209 218 220 221 220 220 222 223 224 222 219 219
246 233 226 210 205 209 224 243 244 250 256 259 268 257 255 254 266 270 266 255 266 254 215 238 209 208 208 204 207 210 213 215 217 218 217 218 221 221
256 248 251 241 218 221 224 226 239 247 238 245 256 267 267 261 261 275 277 272 264 261 236 253 237 221 215 213 199 202 206 210 213 214 215 218 223 227
254 242 242 252 259 238 240 250 256 260 241 229 242 255 267 271 245 248 247 252 261 261 231 245 257 243 227 213 204 201 204 208 211 214 218 221 225 229
250 242 228 229 233 214 217 235 251 260 264 243 234 252 262 275 270 273 263 251 263 261 242 238 266 262 238 224 212 203 205 207 212 215 218 220 224 229
245 231 232 231 221 211 214 229 245 250 257 252 246 247 245 244 236 233 245 249 262 265 244 232 252 269 275 248 216 198 211 219 219 219 220 221 220 220
260 249 227 203 218 221 219 231 242 259 261 248 243 239 236 234 225 221 225 234 247 255 258 235 262 253 249 263 254 224 202 202 202 218 222 226 220 210
271 284 291 203 228 232 230 240 252 262 258 251 245 241 237 232 230 219 219 226 233 238 252 246 252 252 262 267 265 248 226 211 193 200 208 215 221 220
273 287 280 255 256 246 240 241 243 242 243 251 255 251 242 231 224 222 219 223 233 244 243 233 231 243 248 255 264 260 254 236 205 203 203 197 202 200
256 267 263 261 261 261 254 242 238 243 238 244 253 259 256 242 228 222 222 222 231 246 241 233 229 229 243 250 253 265 254 246 231 215 209 209 204 209
249 245 245 243 245 240 237 230 229 232 238 247 253 257 253 249 245 229 220 221 227 234 238 237 227 224 235 246 253 251 254 256 246 230 218 231 232 219
227 245 247 244 243 239 239 237 230 233 240 245 248 249 250 251 255 248 236 230 235 240 236 231 213 222 257 259 237 248 251 257 260 251 232 228 243 236
223 244 247 246 247 244 238 240 240 229 231 238 242 246 246 247 247 245 235 234 237 240 237 224 206 205 237 258 258 228 237 246 251 252 241 234 242 245
243 250 252 255 260 263 262 249 247 257 243 238 241 245 245 252 259 256 243 236 240 245 245 232 214 210 226 247 259 252 234 235 238 249 255 260 247 227
266 268 267 270 271 270 282 281 273 268 266 251 245 252 253 249 255 263 258 249 246 253 253 250 227 213 228 246 258 252 244 237 225 223 242 258 267 254
274 271 267 270 274 271 269 270 266 261 266 265 257 254 254 255 258 261 259 253 243 242 253 260 232 212 224 237 252 250 238 237 236 244 252 238 229 236
283 282 278 277 275 271 272 276 279 274 269 280 287 277 268 266 272 277 284 280 274 273 284 279 269 252 244 238 248 257 242 243 253 239 295 287 239 231